Location: Sternwarte_Laufen
(47.9344°N, 12.9346°E)
Time: 05:01:52
(UTC+02:00)

ISS - Pass Details

Date: 19 May 2017
Orbit: 402 x 409 km, 51.6° (Epoch: 23 May)

Event Time Altitude Azimuth Distance (km) Brightness Sun altitude
Exits shadow 03:06:10 13° 284° (WNW) 1,281 -1.5 -17.0°
Maximum altitude 03:08:50 42° 354° (N) 588 -2.6 -16.8°
Drops below altitude 10° 03:11:59 10° 68° (ENE) 1,464 -0.2 -16.5°
Sets 03:14:08 0° 76° (ENE) 2,323 0.8 -16.3°
